Showing default

OPS 9333 (IDSCS 18), 2864

Orbit data source: Space-Track

OPS 9333 (IDSCS 18), 2864 is a payload satellite owned by SAMSO (US) in GEO that was launched on Sat, 01 Jul 1967 UTC via a TITAN IIIC launch vehicle from the Air Force Eastern Test Range (AFETR). Payload-class satellites include a variety of spacecraft equipped with specific instruments for various scientific and technological missions. These include communications satellites like Starlink; space stations such as the ISS; scientific satellites like the Hubble; Earth observation satellites from companies like Planet Labs, Umbra, and HawkEye 360; GPS; miniature CubeSats for education and research; and military/defense satellites.

Not visible in the next 10 days
Identifier
2864, 1967-066C
Orbit
GEO
Country
Flag of USUS
Related business
Manufacturer
Philco-Ford WDL
Mission
Non-operational spacecraft
Bus & Motor
IDCSP, Unknown motor
Mass
45 kg wet, 45 kg dry
Launch date (UTC)
1967-07-01 (59 years ago)
Launch vehicle
TITAN IIIC
Launch site
Air Force Eastern Test Range (AFETR)
Object type
Payload
Rocket body
Debris
Shape & HBR
Unknown
Radar Cross Section
Medium (>0.1 m² and <1 m²)

Expand to show TLE details & history
Last TLE update: 3 days ago

TLE from 3 days ago
0 OPS 9333 (IDSCS 18)
1 02864U 67066C   26033.98712137 -.00000063  00000-0  00000-0 0  9997
2 02864   2.4776  99.8107 0059748 228.2907 153.1200  1.09785261130077
Epoch: 2026-02-02T23:41Z
TLE epoch observation values (Epoch: 2026-02-02T23:41:27.286Z)
Latitude
0.92836°
Longitude
-6.99606°
Altitude
33,526.547 km
Speed
3.152 km/s
True Right ascension
08h 06m 10s
True Declination
0° 55' 39"
Sunlit
Object was in daylight at epoch
Visualization orbit readout
Latitude
Unknown
Longitude
Unknown
Altitude
Unknown
Speed
Unknown
Apparent Right ascension
Unknown
Apparent Declination
Unknown
Sunlit
N/A
Visualization observer readout
Local Sidereal Time
12:42:49
Azimuth
Unknown
Elevation
Unknown
Doppler factor
Unknown
Orbital elements
Apogee altitude
33,552.413 km
Perigee altitude
33,078.093 km
Semi-major axis
39,693.39 km
Eccentricity
0.00597
Inclination
2.4776°
RAAN
99.8107°
Arg. of periapsis
228.2907°
True anomaly
153.4275°
Mean anomaly
153.12°
Eccentric anomaly
153.27395°
Mean motion
0.27445 °/min
Orbital period
1,311.71 mins
BSTAR
0
Loading maneuver chart data...
Computing Atmospheric mass density...
Loading historical data...
Loading historical data...
Loading historical data...
Loading historical data...
Loading historical data...
Loading historical data...
Loading historical data...

Documentation

Showing up to 5 results
|